Retour au catalogue

GEESAT 6-10

ActifScienceLEO
NORAD 65722·PAYLOAD·🇨🇳 China

Lancé Sep 24, 2025 depuis Yellow Sea Launch Area

Loading…

Prochains Passages (prochaines 24 heures)

TLE

FraisSource: Space-Track

Époque: Sep 13, 2026, 17:00 UTC

1 65722U 25214L   26256.70862153  .00001014  00000-0  14904-3 0  9996
2 65722  49.9894 258.5248 0011568 216.9291 143.0852 14.83569304 52645

Suivez GEESAT 6-10 en temps réel avec AllMySat

Download on the App Store